"startDT [UTC]","vpos","CH4 [ppm]","stdev(CH4) [ppm]","CO2 [ppm]","stdev(CO2) [ppm]","H2O [ppm]","stdev(H2O)","p_LGR [torr]","T_LGR [C]","mt1_LGR [us]","mt2_LGR [us]","T_ECpre [C]","T_EC1 [C]","T_EC2 [C]","p_inlet [hPa]","p_in [hPa]","p_out [hPa]","T_inlet [C]","RH_inlet [%]","dwpt_inlet [C]","T_vent [C]","RH_vent [%]","dwpt_vent [C]","flow_vent [l min-1]","flow_inlet [l min-1]","dwpt_sample [C]","T_room [C]"
2013-04-18 00:00:00,0.0,1.9120,0.0009,406.84,0.50,417.5,29.1,138.04,31.09,24.66,36.43,0.04,-272.76,-272.76,-44,570,-941,25.3,9.4,-9.2,25.4,9.6,-8.9,5.73,2.40,-20.4,30.8
2013-04-18 00:01:00,0.0,1.9121,0.0009,406.87,0.35,420.0,27.9,138.04,31.09,24.66,36.43,0.04,-272.76,-272.76,-43,570,-942,25.3,9.5,-9.2,25.5,9.7,-8.8,5.73,2.43,-20.4,30.8
2013-04-18 00:02:00,0.0,1.9123,0.0009,406.86,0.44,411.4,25.4,138.04,31.10,24.66,36.42,0.04,-272.76,-272.76,-44,570,-941,25.3,9.4,-9.2,25.5,9.6,-8.9,5.73,2.33,-20.4,30.9
2013-04-18 00:03:00,0.0,1.9117,0.0008,406.90,0.47,425.9,31.5,138.04,31.10,24.66,36.43,0.04,-272.75,-272.76,-44,570,-941,25.3,9.4,-9.3,25.4,9.6,-8.9,5.73,2.34,-20.4,30.9
2013-04-18 00:04:00,0.0,1.9117,0.0009,406.88,0.47,420.0,26.6,138.04,31.11,24.66,36.43,0.04,-272.76,-272.76,-44,570,-941,25.3,9.4,-9.3,25.4,9.6,-8.9,5.73,2.42,-20.4,30.9
2013-04-18 00:05:00,0.0,1.9120,0.0008,406.74,0.43,413.2,28.5,138.04,31.11,24.66,36.43,0.04,-272.76,-272.76,-44,570,-941,25.3,9.5,-9.2,25.4,9.7,-8.9,5.73,2.40,-20.5,30.9
2013-04-18 00:06:00,0.0,1.9122,0.0010,406.87,0.49,417.5,29.0,138.04,31.12,24.65,36.42,0.04,-272.76,-272.76,-43,570,-942,25.2,9.5,-9.2,25.4,9.7,-8.9,5.73,2.32,-20.5,30.9
2013-04-18 00:07:00,0.0,1.9116,0.0009,406.94,0.47,417.9,34.3,138.04,31.12,24.66,36.42,0.04,-272.76,-272.76,-44,570,-942,25.2,9.5,-9.2,25.4,9.7,-8.9,5.73,2.35,-20.5,30.9
2013-04-18 00:08:00,0.0,1.9123,0.0011,406.88,0.42,408.0,28.7,138.04,31.13,24.66,36.43,0.04,-272.76,-272.76,-44,570,-942,25.2,9.6,-9.1,25.3,9.8,-8.8,5.73,2.42,-20.5,30.9
2013-04-18 00:09:00,0.0,1.9120,0.0010,406.98,0.38,407.4,33.8,138.04,31.13,24.66,36.43,0.04,-272.76,-272.76,-44,570,-941,25.2,9.7,-9.0,25.3,9.9,-8.6,5.73,2.41,-20.5,30.8
2013-04-18 00:10:00,0.0,1.9119,0.0009,406.85,0.47,419.6,30.5,138.04,31.14,24.66,36.42,0.04,-272.76,-272.76,-44,570,-941,25.2,9.7,-8.9,25.3,9.9,-8.6,5.73,2.33,-20.6,30.8
2013-04-18 00:11:00,0.0,1.9122,0.0009,406.82,0.35,415.6,30.1,138.04,31.15,24.66,36.44,0.04,-272.76,-272.76,-43,570,-942,25.2,9.8,-8.9,25.3,10.0,-8.5,5.73,2.34,-20.5,30.8
2013-04-18 00:12:00,0.0,1.9119,0.0009,406.73,0.46,417.8,30.2,138.04,31.15,24.66,36.43,0.04,-272.75,-272.76,-44,569,-942,25.1,9.8,-8.8,25.3,10.0,-8.5,5.73,2.43,-20.6,30.8
2013-04-18 00:13:00,0.0,1.9121,0.0009,406.92,0.44,410.3,29.1,138.04,31.16,24.66,36.43,0.04,-272.76,-272.76,-44,569,-941,25.1,9.9,-8.8,25.3,10.1,-8.4,5.73,2.40,-20.6,30.8
2013-04-18 00:14:00,0.0,1.9121,0.0009,406.99,0.43,414.3,32.5,138.04,31.16,24.66,36.42,0.04,-272.76,-272.76,-44,569,-941,25.1,10.0,-8.7,25.2,10.2,-8.3,5.73,2.32,-20.6,30.8
2013-04-18 00:15:00,0.0,1.9119,0.0008,406.95,0.42,406.9,35.0,138.04,31.17,24.66,36.42,0.04,-272.76,-272.76,-43,569,-942,25.0,10.0,-8.7,25.3,10.2,-8.3,5.73,2.35,-20.6,30.7
2013-04-18 00:16:00,0.0,1.9120,0.0008,406.92,0.46,404.7,36.1,138.04,31.17,24.66,36.43,0.04,-272.76,-272.76,-43,569,-941,25.1,10.0,-8.7,25.2,10.2,-8.3,5.73,2.43,-20.6,30.7
2013-04-18 00:17:00,0.0,1.9122,0.0008,406.92,0.51,402.0,30.1,138.04,31.18,24.66,36.42,0.04,-272.76,-272.76,-43,569,-941,25.0,10.0,-8.7,25.2,10.2,-8.4,5.73,2.39,-20.6,30.7
2013-04-18 00:18:00,0.0,1.9121,0.0009,406.94,0.45,412.2,30.1,138.04,31.18,24.66,36.43,0.04,-272.76,-272.76,-44,569,-941,25.0,10.0,-8.7,25.2,10.2,-8.4,5.73,2.32,-20.7,30.7
2013-04-18 00:19:00,0.0,1.9121,0.0008,406.92,0.40,406.0,30.6,138.04,31.19,24.66,36.42,0.04,-272.76,-272.76,-44,569,-941,25.0,10.1,-8.6,25.2,10.3,-8.2,5.73,2.36,-20.7,30.7
2013-04-18 00:20:00,0.0,1.9120,0.0009,406.89,0.36,410.4,32.3,138.04,31.19,24.66,36.42,0.04,-272.76,-272.76,-43,569,-941,25.0,10.2,-8.5,25.2,10.4,-8.1,5.73,2.43,-20.7,30.7
2013-04-18 00:21:00,0.0,1.9124,0.0010,406.97,0.39,408.4,29.7,138.04,31.20,24.66,36.43,0.04,-272.76,-272.76,-43,569,-941,25.0,10.3,-8.4,25.2,10.5,-8.0,5.73,2.39,-20.7,30.7
2013-04-18 00:22:00,0.0,1.9127,0.0009,406.91,0.40,414.6,35.1,138.04,31.20,24.66,36.42,0.04,-272.76,-272.76,-43,569,-941,25.0,10.4,-8.2,25.2,10.6,-7.8,5.73,2.32,-20.7,30.6
2013-04-18 00:23:00,0.0,1.9121,0.0009,406.87,0.43,398.9,32.4,138.04,31.21,24.66,36.43,0.04,-272.76,-272.76,-44,569,-941,24.9,10.5,-8.1,25.1,10.7,-7.7,5.73,2.36,-20.7,30.6
2013-04-18 00:24:00,0.0,1.9122,0.0010,406.88,0.39,403.1,27.5,138.04,31.21,24.66,36.42,0.04,-272.76,-272.76,-44,568,-941,24.9,10.6,-8.0,25.1,10.9,-7.6,5.73,2.43,-20.7,30.6
2013-04-18 00:25:00,0.0,1.9123,0.0009,406.94,0.44,400.2,26.3,138.04,31.22,24.66,36.42,0.04,-272.76,-272.76,-43,568,-941,24.9,10.7,-7.9,25.1,11.0,-7.5,5.73,2.38,-20.7,30.6
2013-04-18 00:26:00,0.0,1.9127,0.0008,406.89,0.40,403.0,34.9,138.04,31.22,24.66,36.43,0.04,-272.76,-272.76,-43,568,-941,24.9,10.8,-7.8,25.1,11.0,-7.4,5.73,2.32,-20.7,30.6
2013-04-18 00:27:00,0.0,1.9122,0.0007,406.87,0.45,393.6,34.2,138.04,31.23,24.66,36.42,0.04,-272.76,-272.76,-43,568,-941,24.9,10.9,-7.8,25.0,11.1,-7.3,5.73,2.38,-20.7,30.6
2013-04-18 00:28:00,0.0,1.9127,0.0010,406.90,0.45,407.4,32.4,138.04,31.23,24.66,36.43,0.04,-272.76,-272.76,-43,568,-941,24.8,10.9,-7.7,25.1,11.2,-7.3,5.73,2.43,-20.7,30.6
2013-04-18 00:29:00,0.0,1.9129,0.0011,407.08,0.45,404.5,31.5,138.04,31.24,24.66,36.43,0.04,-272.76,-272.76,-44,568,-941,24.8,11.0,-7.7,25.1,11.2,-7.2,5.73,2.37,-20.8,30.6
2013-04-18 00:30:00,0.0,1.9128,0.0010,407.06,0.44,389.9,33.8,138.04,31.24,24.66,36.42,0.04,-272.76,-272.76,-43,568,-941,24.8,11.0,-7.6,25.0,11.3,-7.2,5.73,2.32,-20.8,30.6
2013-04-18 00:31:00,0.0,1.9129,0.0010,406.98,0.37,386.8,34.0,138.04,31.25,24.65,36.42,0.04,-272.76,-272.76,-43,568,-941,24.8,11.1,-7.6,25.0,11.3,-7.2,5.73,2.39,-20.8,30.5
2013-04-18 00:32:00,0.0,1.9126,0.0011,406.91,0.44,397.4,27.7,138.04,31.25,24.66,36.43,0.04,-272.76,-272.76,-43,568,-941,24.8,11.0,-7.6,25.0,11.3,-7.2,5.73,2.43,-20.8,30.5
2013-04-18 00:33:00,0.0,1.9126,0.0009,406.99,0.43,398.7,32.4,138.04,31.26,24.66,36.42,0.04,-272.76,-272.76,-43,567,-941,24.8,10.9,-7.8,25.0,11.2,-7.3,5.73,2.35,-20.8,30.5
2013-04-18 00:34:00,0.0,1.9124,0.0010,407.00,0.39,395.1,29.4,138.04,31.27,24.66,36.42,0.04,-272.76,-272.76,-43,568,-941,24.8,10.6,-8.1,25.0,10.9,-7.7,5.73,2.32,-20.8,30.5
2013-04-18 00:35:00,0.0,1.9126,0.0009,406.92,0.44,403.4,31.3,138.04,31.27,24.66,36.43,0.04,-272.76,-272.76,-43,567,-941,24.8,10.5,-8.3,24.9,10.7,-7.9,5.73,2.40,-20.8,30.5
2013-04-18 00:36:00,0.0,1.9127,0.0009,406.92,0.49,406.5,34.2,138.04,31.28,24.66,36.42,0.04,-272.76,-272.76,-43,567,-941,24.7,10.4,-8.4,24.9,10.7,-8.0,5.73,2.43,-20.8,30.5
2013-04-18 00:37:00,0.0,1.9127,0.0009,407.02,0.49,395.6,36.2,138.04,31.28,24.66,36.42,0.04,-272.76,-272.76,-43,567,-941,24.7,10.5,-8.4,24.9,10.7,-7.9,5.73,2.34,-20.8,30.4
2013-04-18 00:38:00,0.0,1.9128,0.0011,406.93,0.36,405.9,32.9,138.04,31.28,24.66,36.43,0.04,-272.76,-272.76,-43,567,-941,24.7,10.5,-8.3,24.9,10.8,-7.9,5.73,2.33,-20.8,30.4
2013-04-18 00:39:00,0.0,1.9130,0.0009,407.03,0.42,394.1,28.4,138.04,31.29,24.66,36.42,0.04,-272.76,-272.76,-43,567,-941,24.7,10.6,-8.2,24.9,10.8,-7.8,5.73,2.42,-20.8,30.4
2013-04-18 00:40:00,0.0,1.9128,0.0010,406.91,0.39,385.8,27.5,138.04,31.29,24.66,36.42,0.04,-272.75,-272.76,-43,567,-941,24.7,10.6,-8.2,24.9,10.9,-7.8,5.73,2.41,-20.8,30.4
2013-04-18 00:41:00,0.0,1.9128,0.0010,406.93,0.41,406.0,27.1,138.04,31.30,24.66,36.43,0.04,-272.75,-272.76,-43,567,-941,24.7,10.6,-8.2,24.9,10.9,-7.8,5.73,2.32,-20.8,30.4
2013-04-18 00:42:00,0.0,1.9128,0.0008,406.94,0.48,402.3,33.7,138.04,31.30,24.66,36.43,0.04,-272.76,-272.76,-43,567,-941,24.7,10.6,-8.2,24.8,10.9,-7.8,5.73,2.35,-20.8,30.4
2013-04-18 00:43:00,0.0,1.9128,0.0009,406.74,0.45,387.3,31.9,138.04,31.31,24.66,36.43,0.04,-272.76,-272.76,-43,567,-941,24.7,10.6,-8.3,24.8,10.8,-7.8,5.73,2.43,-20.8,30.4
2013-04-18 00:44:00,0.0,1.9129,0.0009,406.93,0.49,395.4,33.6,138.04,31.31,24.66,36.43,0.04,-272.76,-272.76,-43,567,-941,24.6,10.5,-8.3,24.8,10.8,-7.9,5.73,2.39,-20.8,30.4
2013-04-18 00:45:00,0.0,1.9130,0.0010,406.93,0.46,389.8,27.7,138.04,31.32,24.66,36.43,0.04,-272.76,-272.76,-43,567,-941,24.6,10.5,-8.4,24.8,10.7,-8.0,5.73,2.32,-20.9,30.3
2013-04-18 00:46:00,0.0,1.9131,0.0010,406.85,0.42,389.8,29.0,138.04,31.32,24.66,36.43,0.04,-272.76,-272.76,-43,566,-941,24.6,10.4,-8.5,24.8,10.7,-8.1,5.73,2.37,-20.9,30.3
2013-04-18 00:47:00,0.0,1.9132,0.0011,406.94,0.43,383.8,34.3,138.03,31.33,24.66,36.42,0.04,-272.76,-272.76,-43,567,-941,24.6,10.4,-8.6,24.8,10.6,-8.1,5.73,2.43,-20.9,30.4
2013-04-18 00:48:00,0.0,1.9131,0.0010,407.03,0.36,387.6,32.8,138.04,31.33,24.66,36.42,0.04,-272.76,-272.76,-43,566,-941,24.6,10.3,-8.7,24.8,10.6,-8.2,5.73,2.37,-20.9,30.3
2013-04-18 00:49:00,0.0,1.9129,0.0008,406.89,0.32,383.4,27.9,138.04,31.34,24.66,36.43,0.04,-272.76,-272.76,-43,566,-941,24.6,10.3,-8.7,24.7,10.6,-8.2,5.73,2.32,-20.9,30.3
2013-04-18 00:50:00,0.0,1.9130,0.0008,407.01,0.39,398.0,34.3,138.04,31.34,24.66,36.42,0.04,-272.76,-272.76,-43,566,-941,24.6,10.2,-8.9,24.7,10.4,-8.4,5.73,2.39,-20.9,30.3
2013-04-18 00:51:00,0.0,1.9130,0.0009,406.82,0.42,392.8,35.2,138.03,31.34,24.66,36.43,0.04,-272.76,-272.76,-43,566,-941,24.6,10.1,-9.0,24.7,10.3,-8.6,5.73,2.43,-20.9,30.2
2013-04-18 00:52:00,0.0,1.9130,0.0009,406.98,0.44,394.2,32.7,138.03,31.35,24.66,36.42,0.04,-272.76,-272.76,-43,566,-941,24.6,9.9,-9.1,24.7,10.2,-8.8,5.73,2.35,-20.9,30.2
2013-04-18 00:53:00,0.0,1.9128,0.0010,406.83,0.40,397.1,27.6,138.04,31.35,24.66,36.43,0.04,-272.76,-272.76,-43,566,-941,24.6,9.8,-9.3,24.7,10.0,-9.0,5.73,2.33,-20.9,30.2
2013-04-18 00:54:00,0.0,1.9129,0.0009,406.96,0.40,384.6,27.8,138.03,31.36,24.66,36.43,0.04,-272.76,-272.77,-43,566,-941,24.5,9.6,-9.6,24.7,9.9,-9.2,5.73,2.41,-21.0,30.2
2013-04-18 00:55:00,0.0,1.9129,0.0010,406.85,0.38,389.2,29.3,138.03,31.37,24.66,36.43,0.04,-272.76,-272.76,-43,566,-941,24.6,9.5,-9.8,24.6,9.7,-9.4,5.73,2.41,-20.9,30.2
2013-04-18 00:56:00,0.0,1.9124,0.0009,406.89,0.40,388.6,30.7,138.03,31.37,24.66,36.43,0.04,-272.76,-272.76,-43,566,-941,24.5,9.3,-10.0,24.7,9.6,-9.6,5.73,2.34,-21.0,30.2
2013-04-18 00:57:00,0.0,1.9130,0.0009,406.76,0.43,388.6,32.8,138.04,31.37,24.66,36.43,0.04,-272.76,-272.76,-43,565,-941,24.5,9.2,-10.1,24.6,9.4,-9.7,5.73,2.34,-21.0,30.2
2013-04-18 00:58:00,0.0,1.9132,0.0010,406.89,0.38,384.5,33.0,138.03,31.38,24.66,36.42,0.04,-272.76,-272.76,-43,565,-941,24.5,9.2,-10.2,24.6,9.4,-9.8,5.73,2.43,-21.0,30.2
2013-04-18 00:59:00,0.0,1.9128,0.0010,406.84,0.45,386.9,28.0,138.03,31.38,24.66,36.42,0.04,-272.76,-272.76,-43,565,-941,24.5,9.1,-10.3,24.6,9.3,-9.9,5.73,2.41,-21.0,30.1
2013-04-18 01:00:00,0.0,1.9127,0.0009,407.03,0.42,383.5,30.4,138.03,31.39,24.66,36.42,0.04,-272.76,-272.76,-43,565,-941,24.5,9.0,-10.4,24.6,9.3,-10.0,5.73,2.32,-21.0,30.1
2013-04-18 01:01:00,0.0,1.9131,0.0010,406.94,0.38,385.8,28.7,138.03,31.39,24.66,36.42,0.04,-272.76,-272.76,-43,565,-941,24.5,9.0,-10.4,24.6,9.2,-10.0,5.73,2.35,-21.0,30.1
2013-04-18 01:02:00,0.0,1.9135,0.0011,407.00,0.39,385.3,32.5,138.03,31.40,24.66,36.41,0.04,-272.76,-272.76,-43,565,-941,24.5,9.0,-10.4,24.6,9.2,-10.1,5.73,2.43,-21.0,30.1
2013-04-18 01:03:00,0.0,1.9129,0.0011,407.01,0.48,382.6,40.7,138.03,31.41,24.66,36.42,0.04,-272.76,-272.76,-43,565,-940,24.5,9.0,-10.4,24.6,9.3,-10.0,5.73,2.39,-21.0,30.1
2013-04-18 01:04:00,0.0,1.9131,0.0009,406.90,0.47,388.9,34.8,138.03,31.41,24.66,36.43,0.04,-272.76,-272.76,-43,565,-941,24.4,9.1,-10.4,24.6,9.3,-10.0,5.73,2.32,-21.0,30.1
2013-04-18 01:05:00,0.0,1.9134,0.0008,406.91,0.45,388.5,34.1,138.03,31.42,24.66,36.42,0.04,-272.76,-272.76,-43,565,-941,24.5,9.1,-10.4,24.6,9.3,-10.0,5.73,2.37,-21.0,30.0
2013-04-18 01:06:00,0.0,1.9135,0.0009,407.05,0.39,376.9,28.8,138.03,31.42,24.66,36.42,0.04,-272.76,-272.76,-42,565,-941,24.4,9.0,-10.5,24.5,9.2,-10.1,5.73,2.43,-21.1,30.0
2013-04-18 01:07:00,0.0,1.9132,0.0011,406.95,0.38,384.5,28.3,138.03,31.43,24.66,36.42,0.04,-272.76,-272.76,-43,565,-940,24.4,8.9,-10.6,24.5,9.2,-10.2,5.73,2.39,-21.1,29.9
2013-04-18 01:08:00,0.0,1.9132,0.0012,406.99,0.46,380.3,30.3,138.03,31.43,24.66,36.42,0.04,-272.76,-272.76,-43,565,-940,24.4,9.0,-10.5,24.5,9.2,-10.2,5.73,2.32,-21.1,30.0
2013-04-18 01:09:00,0.0,1.9138,0.0010,407.06,0.37,381.4,41.1,138.03,31.44,24.66,36.42,0.04,-272.76,-272.76,-43,564,-941,24.4,9.0,-10.5,24.5,9.2,-10.1,5.73,2.36,-21.1,29.9
2013-04-18 01:10:00,0.0,1.9137,0.0009,406.99,0.40,380.4,30.4,138.03,31.44,24.66,36.42,0.04,-272.76,-272.76,-42,565,-941,24.4,8.9,-10.6,24.5,9.2,-10.2,5.73,2.43,-21.1,29.9
2013-04-18 01:11:00,0.0,1.9138,0.0009,407.05,0.40,373.6,29.8,138.03,31.45,24.66,36.42,0.04,-272.76,-272.76,-42,564,-940,24.4,8.9,-10.6,24.5,9.2,-10.2,5.73,2.39,-21.1,29.8
2013-04-18 01:12:00,0.0,1.9133,0.0009,406.97,0.40,380.5,29.1,138.03,31.45,24.66,36.42,0.04,-272.76,-272.76,-43,564,-940,24.4,8.9,-10.6,24.5,9.2,-10.2,5.73,2.33,-21.2,29.8
2013-04-18 01:13:00,0.0,1.9134,0.0010,407.00,0.45,369.1,31.8,138.04,31.45,24.66,36.41,0.04,-272.76,-272.76,-43,564,-941,24.4,8.9,-10.6,24.4,9.1,-10.3,5.73,2.35,-21.2,29.8
2013-04-18 01:14:00,0.0,1.9137,0.0011,406.95,0.46,374.9,27.6,138.03,31.46,24.66,36.42,0.04,-272.76,-272.76,-43,564,-941,24.4,9.0,-10.5,24.5,9.2,-10.2,5.73,2.42,-21.2,29.8
2013-04-18 01:15:00,0.0,1.9140,0.0010,407.07,0.40,373.5,33.7,138.03,31.46,24.66,36.41,0.04,-272.76,-272.76,-43,564,-940,24.4,9.0,-10.5,24.5,9.2,-10.2,5.73,2.41,-21.2,29.8
2013-04-18 01:16:00,0.0,1.9138,0.0012,407.12,0.42,375.0,34.4,138.03,31.47,24.66,36.42,0.04,-272.76,-272.76,-42,564,-940,24.4,9.0,-10.5,24.4,9.3,-10.1,5.73,2.34,-21.2,29.7
2013-04-18 01:17:00,0.0,1.9139,0.0010,407.11,0.43,373.2,34.2,138.03,31.47,24.66,36.41,0.04,-272.76,-272.76,-42,564,-941,24.4,9.1,-10.4,24.4,9.3,-10.0,5.73,2.34,-21.2,29.8
2013-04-18 01:18:00,0.0,1.9133,0.0008,407.17,0.42,374.5,28.6,138.03,31.48,24.66,36.42,0.04,-272.76,-272.76,-43,564,-941,24.4,9.1,-10.4,24.4,9.3,-10.0,5.73,2.41,-21.2,29.7
2013-04-18 01:19:00,0.0,1.9138,0.0008,406.99,0.44,382.7,28.2,138.03,31.48,24.66,36.42,0.04,-272.76,-272.76,-43,564,-940,24.4,9.2,-10.2,24.4,9.5,-9.8,5.73,2.42,-21.3,29.7
2013-04-18 01:20:00,0.0,1.9139,0.0010,407.04,0.35,381.0,28.6,138.03,31.49,24.66,36.41,0.04,-272.76,-272.76,-43,564,-940,24.4,9.2,-10.2,24.4,9.5,-9.9,5.73,2.35,-21.3,29.7
2013-04-18 01:21:00,0.0,1.9137,0.0009,407.05,0.33,377.4,28.6,138.03,31.49,24.66,36.42,0.04,-272.76,-272.76,-43,563,-940,24.4,9.2,-10.2,24.4,9.5,-9.9,5.73,2.33,-21.3,29.7
2013-04-18 01:22:00,0.0,1.9140,0.0009,407.13,0.40,372.1,29.9,138.03,31.50,24.66,36.41,0.04,-272.76,-272.76,-42,563,-940,24.4,9.1,-10.3,24.4,9.4,-10.0,5.73,2.39,-21.3,29.6
2013-04-18 01:23:00,0.0,1.9144,0.0009,407.09,0.42,368.3,29.9,138.03,31.50,24.66,36.41,0.04,-272.76,-272.76,-43,563,-940,24.4,9.1,-10.3,24.4,9.4,-10.0,5.73,2.43,-21.3,29.5
2013-04-18 01:24:00,0.0,1.9141,0.0008,407.06,0.42,367.5,32.6,138.03,31.50,24.66,36.41,0.04,-272.76,-272.76,-43,563,-940,24.4,9.0,-10.5,24.4,9.3,-10.2,5.73,2.38,-21.3,29.6
2013-04-18 01:25:00,0.0,1.9143,0.0011,407.02,0.41,362.3,32.2,138.04,31.51,24.66,36.41,0.04,-272.76,-272.76,-43,563,-940,24.4,9.0,-10.4,24.4,9.3,-10.1,5.73,2.33,-21.3,29.6
2013-04-18 01:26:00,0.0,1.9140,0.0013,407.04,0.48,360.6,23.5,138.03,31.51,24.66,36.42,0.04,-272.76,-272.76,-43,563,-940,24.4,9.1,-10.4,24.4,9.4,-10.0,5.73,2.35,-21.3,29.5
2013-04-18 01:27:00,0.0,1.9138,0.0010,407.13,0.46,359.6,27.9,138.03,31.51,24.66,36.41,0.04,-272.76,-272.76,-43,563,-940,24.4,9.3,-10.2,24.4,9.5,-9.9,5.73,2.40,-21.4,29.5
2013-04-18 01:28:00,0.0,1.9140,0.0008,407.05,0.41,360.0,28.1,138.03,31.51,24.66,36.41,0.04,-272.76,-272.76,-43,563,-940,24.4,9.3,-10.1,24.4,9.6,-9.8,5.73,2.43,-21.4,29.5
2013-04-18 01:29:00,0.0,1.9140,0.0008,407.11,0.45,357.1,34.4,138.03,31.52,24.66,36.41,0.04,-272.76,-272.76,-43,563,-940,24.4,9.2,-10.2,24.4,9.5,-9.9,5.73,2.39,-21.4,29.5
2013-04-18 01:30:00,0.0,1.9143,0.0009,407.04,0.44,363.9,30.4,138.03,31.52,24.66,36.42,0.04,-272.76,-272.76,-43,563,-940,24.4,9.3,-10.2,24.4,9.5,-9.8,5.73,2.35,-21.4,29.5
2013-04-18 01:31:00,0.0,1.9140,0.0009,407.02,0.42,370.7,36.5,138.04,31.53,24.66,36.41,0.04,-272.76,-272.76,-43,563,-940,24.4,9.3,-10.1,24.4,9.6,-9.7,5.73,2.34,-21.4,29.5
2013-04-18 01:32:00,0.0,1.9141,0.0010,407.06,0.39,355.1,32.8,138.04,31.53,24.66,36.41,0.04,-272.76,-272.76,-43,563,-940,24.4,9.4,-10.0,24.4,9.7,-9.7,5.73,2.37,-21.4,29.5
2013-04-18 01:33:00,0.0,1.9145,0.0010,407.08,0.40,358.3,31.9,138.04,31.53,24.66,36.42,0.04,-272.76,-272.76,-43,563,-941,24.4,9.3,-10.1,24.4,9.6,-9.8,5.73,2.42,-21.4,29.4
2013-04-18 01:34:00,0.0,1.9145,0.0007,407.10,0.43,351.9,32.2,138.03,31.54,24.66,36.41,0.04,-272.76,-272.76,-43,563,-940,24.4,9.3,-10.1,24.4,9.6,-9.7,5.73,2.42,-21.4,29.5
2013-04-18 01:35:00,0.0,1.9146,0.0010,407.05,0.46,354.0,35.0,138.03,31.54,24.66,36.42,0.04,-272.76,-272.76,-43,563,-940,24.4,9.3,-10.1,24.4,9.6,-9.7,5.73,2.39,-21.4,29.4
2013-04-18 01:36:00,0.0,1.9145,0.0009,406.98,0.41,361.8,28.9,138.04,31.54,24.66,36.42,0.04,-272.76,-272.76,-43,563,-940,24.4,9.3,-10.0,24.4,9.6,-9.8,5.73,2.36,-21.4,29.4
2013-04-18 01:37:00,0.0,1.9142,0.0008,406.96,0.38,361.7,30.7,138.04,31.54,24.66,36.42,0.04,-272.76,-272.76,-43,563,-940,24.4,9.4,-9.9,24.4,9.7,-9.6,5.73,2.34,-21.4,29.5
2013-04-18 01:38:00,0.0,1.9140,0.0010,407.05,0.41,361.5,29.7,138.04,31.54,24.66,36.42,0.04,-272.76,-272.76,-43,563,-940,24.4,9.4,-10.0,24.4,9.7,-9.7,5.73,2.37,-21.4,29.5
2013-04-18 01:39:00,0.0,1.9141,0.0011,406.97,0.42,361.2,26.4,138.04,31.54,24.66,36.42,0.04,-272.76,-272.76,-43,563,-940,24.4,9.4,-10.0,24.4,9.7,-9.6,5.73,2.41,-21.4,29.4
2013-04-18 01:40:00,0.0,1.9144,0.0009,407.02,0.35,358.2,31.7,138.04,31.55,24.66,36.42,0.04,-272.76,-272.76,-43,563,-940,24.4,9.3,-10.1,24.4,9.6,-9.6,5.73,2.43,-21.5,29.4
2013-04-18 01:41:00,0.0,1.9142,0.0010,407.13,0.47,362.1,30.1,138.04,31.55,24.66,36.42,0.04,-272.76,-272.76,-43,563,-940,24.5,9.3,-10.0,24.4,9.6,-9.7,5.73,2.40,-21.5,29.5
2013-04-18 01:42:00,0.0,1.9142,0.0009,407.02,0.43,351.4,28.7,138.03,31.55,24.66,36.42,0.04,-272.76,-272.76,-43,563,-940,24.5,9.4,-9.9,24.4,9.7,-9.6,5.73,2.37,-21.5,29.4
2013-04-18 01:43:00,0.0,1.9143,0.0009,407.04,0.41,350.6,27.2,138.04,31.56,24.66,36.42,0.04,-272.76,-272.76,-43,563,-940,24.4,9.4,-9.9,24.4,9.7,-9.6,5.73,2.35,-21.5,29.4
2013-04-18 01:44:00,0.0,1.9144,0.0009,407.01,0.43,363.9,31.7,138.04,31.56,24.66,36.41,0.04,-272.76,-272.76,-43,563,-940,24.4,9.4,-9.9,24.4,9.7,-9.6,5.73,2.36,-21.5,29.4
2013-04-18 01:45:00,0.0,1.9139,0.0009,407.07,0.48,352.6,31.2,138.04,31.56,24.66,36.41,0.04,-272.76,-272.76,-43,563,-940,24.4,9.4,-9.9,24.4,9.7,-9.5,5.73,2.39,-21.5,29.4
2013-04-18 01:46:00,0.0,1.9142,0.0010,407.19,0.40,354.8,31.2,138.03,31.56,24.66,36.41,0.04,-272.76,-272.76,-43,563,-940,24.4,9.4,-10.0,24.4,9.7,-9.6,5.73,2.41,-21.5,29.4
2013-04-18 01:47:00,0.0,1.9146,0.0008,407.03,0.39,348.1,31.5,138.04,31.57,24.66,36.42,0.04,-272.76,-272.76,-43,563,-940,24.5,9.3,-10.0,24.4,9.7,-9.6,5.73,2.41,-21.5,29.4
2013-04-18 01:48:00,0.0,1.9142,0.0008,407.12,0.40,359.6,25.2,138.04,31.57,24.66,36.41,0.04,-272.76,-272.76,-43,563,-940,24.5,9.4,-10.0,24.4,9.7,-9.6,5.73,2.41,-21.5,29.4
2013-04-18 01:49:00,0.0,1.9145,0.0011,407.07,0.46,354.8,35.5,138.04,31.57,24.66,36.41,0.04,-272.76,-272.76,-43,563,-940,24.5,9.4,-9.9,24.5,9.7,-9.5,5.73,2.39,-21.5,29.4
2013-04-18 01:50:00,0.0,1.9143,0.0009,407.03,0.42,351.8,34.1,138.04,31.57,24.66,36.41,0.04,-272.76,-272.76,-43,563,-940,24.5,9.4,-9.9,24.4,9.7,-9.6,5.73,2.37,-21.5,29.4
2013-04-18 01:51:00,0.0,1.9143,0.0008,407.07,0.46,357.3,28.6,138.04,31.57,24.66,36.42,0.04,-272.76,-272.76,-43,563,-940,24.5,9.4,-9.9,24.4,9.7,-9.6,5.73,2.36,-21.5,29.4
2013-04-18 01:52:00,0.0,1.9146,0.0009,407.01,0.35,347.5,24.8,138.04,31.57,24.66,36.41,0.04,-272.76,-272.76,-43,563,-940,24.5,9.4,-9.9,24.5,9.7,-9.5,5.73,2.37,-21.5,29.4
2013-04-18 01:53:00,0.0,1.9144,0.0010,407.07,0.37,351.6,24.4,138.04,31.57,24.66,36.42,0.04,-272.76,-272.76,-43,563,-940,24.5,9.5,-9.8,24.4,9.7,-9.5,5.73,2.38,-21.5,29.4
2013-04-18 01:54:00,0.0,1.9142,0.0008,407.00,0.40,355.2,28.9,138.04,31.58,24.66,36.41,0.04,-272.76,-272.76,-43,563,-940,24.5,9.5,-9.7,24.4,9.8,-9.4,5.73,2.40,-21.5,29.4
2013-04-18 01:55:00,0.0,1.9144,0.0009,406.99,0.45,358.5,29.0,138.04,31.58,24.66,36.41,0.04,-272.76,-272.76,-43,563,-940,24.5,9.6,-9.7,24.5,9.9,-9.3,5.73,2.41,-21.5,29.4
2013-04-18 01:56:00,0.0,1.9143,0.0008,407.21,0.37,350.0,26.0,138.04,31.58,24.66,36.40,0.04,-272.76,-272.76,-44,563,-940,24.6,9.6,-9.6,24.5,9.9,-9.3,5.73,2.42,-21.5,29.4
2013-04-18 01:57:00,0.0,1.9143,0.0009,406.89,0.41,350.1,27.9,138.04,31.58,24.66,36.41,0.04,-272.76,-272.76,-44,563,-940,24.6,9.6,-9.6,24.5,9.9,-9.2,5.73,2.40,-21.4,29.4
2013-04-18 01:58:00,0.0,1.9142,0.0009,407.04,0.42,352.9,35.8,138.04,31.58,24.66,36.41,0.04,-272.76,-272.76,-43,563,-940,24.6,9.6,-9.5,24.5,10.0,-9.1,5.73,2.39,-21.4,29.4
2013-04-18 01:59:00,0.0,1.9136,0.0010,406.85,0.45,350.4,33.7,138.04,31.58,24.66,36.42,0.04,-272.76,-272.76,-44,563,-940,24.6,9.7,-9.5,24.5,10.0,-9.1,5.73,2.38,-21.4,29.4
2013-04-18 02:00:00,0.0,1.9140,0.0011,407.09,0.43,348.8,31.8,138.04,31.58,24.66,36.41,0.04,-272.76,-272.76,-43,564,-940,24.6,9.7,-9.4,24.5,10.0,-9.1,5.73,2.37,-21.4,29.4
2013-04-18 02:01:00,0.0,1.9145,0.0008,406.84,0.37,357.0,27.0,138.04,31.58,24.66,36.42,0.04,-272.76,-272.76,-43,564,-940,24.6,9.7,-9.4,24.6,10.0,-9.1,5.73,2.37,-21.4,29.4
2013-04-18 02:02:00,0.0,1.9143,0.0009,406.95,0.46,351.7,30.5,138.04,31.58,24.66,36.41,0.04,-272.76,-272.76,-44,564,-940,24.6,9.7,-9.5,24.6,10.0,-9.1,5.73,2.37,-21.4,29.4
2013-04-18 02:03:00,0.0,1.9138,0.0010,406.92,0.40,354.2,31.8,138.04,31.58,24.66,36.42,0.04,-272.76,-272.76,-44,564,-940,24.7,9.7,-9.4,24.6,10.0,-9.0,5.73,2.37,-21.4,29.4
2013-04-18 02:04:00,0.0,1.9142,0.0009,406.97,0.48,358.1,27.3,138.04,31.57,24.66,36.42,0.04,-272.76,-272.76,-44,564,-940,24.7,9.7,-9.3,24.6,10.0,-9.0,5.73,2.40,-21.4,29.4
2013-04-18 02:05:00,0.0,1.9141,0.0008,406.82,0.36,358.1,32.2,138.04,31.57,24.66,36.43,0.04,-272.76,-272.76,-44,564,-940,24.7,9.7,-9.4,24.6,10.0,-9.0,5.73,2.41,-21.4,29.4
2013-04-18 02:06:00,0.0,1.9137,0.0009,406.91,0.39,352.9,31.7,138.04,31.57,24.66,36.42,0.04,-272.76,-272.76,-44,564,-940,24.7,9.7,-9.4,24.6,10.0,-9.0,5.73,2.42,-21.4,29.4
2013-04-18 02:07:00,0.0,1.9139,0.0007,407.00,0.34,344.5,27.2,138.04,31.57,24.66,36.41,0.04,-272.76,-272.76,-44,564,-940,24.7,9.7,-9.4,24.6,10.0,-9.0,5.73,2.41,-21.4,29.4
2013-04-18 02:08:00,0.0,1.9138,0.0009,406.97,0.38,350.7,32.9,138.04,31.57,24.66,36.41,0.04,-272.76,-272.76,-44,564,-940,24.7,9.8,-9.3,24.6,10.1,-9.0,5.73,2.40,-21.4,29.5
2013-04-18 02:09:00,0.0,1.9140,0.0009,406.97,0.39,345.6,28.7,138.05,31.56,24.66,36.42,0.04,-272.76,-272.76,-44,564,-940,24.7,10.0,-9.0,24.6,10.3,-8.6,5.73,2.40,-21.4,29.5
2013-04-18 02:10:00,0.0,1.9144,0.0009,406.94,0.47,352.6,27.3,138.05,31.56,24.66,36.42,0.04,-272.76,-272.76,-44,564,-940,24.7,10.0,-8.9,24.7,10.4,-8.5,5.73,2.39,-21.4,29.5
2013-04-18 02:11:00,0.0,1.9137,0.0009,407.03,0.35,354.0,30.2,138.05,31.56,24.66,36.42,0.04,-272.76,-272.76,-44,564,-940,24.7,10.0,-9.0,24.7,10.3,-8.6,5.73,2.38,-21.3,29.5
2013-04-18 02:12:00,0.0,1.9143,0.0010,406.99,0.39,357.8,25.9,138.05,31.56,24.66,36.41,0.04,-272.76,-272.76,-44,564,-940,24.7,9.9,-9.1,24.6,10.3,-8.7,5.73,2.38,-21.4,29.5
2013-04-18 02:13:00,0.0,1.9142,0.0009,406.96,0.35,347.5,32.0,138.05,31.56,24.66,36.42,0.04,-272.76,-272.76,-44,564,-940,24.7,10.0,-9.0,24.6,10.4,-8.6,5.73,2.37,-21.3,29.5
2013-04-18 02:14:00,0.0,1.9139,0.0008,406.98,0.40,353.3,26.1,138.05,31.56,24.66,36.42,0.04,-272.76,-272.76,-44,564,-940,24.7,10.0,-8.9,24.7,10.4,-8.5,5.73,2.37,-21.3,29.5
2013-04-18 02:15:00,0.0,1.9139,0.0009,406.92,0.41,348.8,31.2,138.05,31.56,24.66,36.42,0.04,-272.76,-272.76,-44,564,-940,24.7,10.2,-8.7,24.7,10.5,-8.3,5.73,2.38,-21.3,29.5
2013-04-18 02:16:00,0.0,1.9140,0.0009,407.06,0.42,360.3,31.9,138.05,31.55,24.66,36.41,0.04,-272.76,-272.76,-44,564,-940,24.7,10.3,-8.6,24.7,10.6,-8.1,5.73,2.39,-21.3,29.5
2013-04-18 02:17:00,0.0,1.9138,0.0009,407.00,0.40,344.8,31.4,138.05,31.55,24.66,36.42,0.04,-272.76,-272.76,-44,564,-941,24.8,10.3,-8.5,24.7,10.7,-8.2,5.73,2.40,-21.3,29.5